Temp
-11 -12 -12 -12 -11 -11 -12 -11 -11 -11 -11 -11 -11 -12 -11 -12 -11 -11 -11 -10 -10 -9 -10 -9 -9 -9 -9 -9 -10 -8 -9 -9 -9 -9 -9 -9 -9 -9 -9 -9 -9 -9 -10 -9 -9 -10 -10
-12 -12 -12 -12 -12 -12 -12 -12 -12 -12 -11 -12 -11 -11 -11 -11 -11 -11 -11 -11 -10 -10 -9 -10 -9 -9 -9 -10 -10 -9 -9 -10 -9 -9 -9 -9 -10 -9 -9 -9 -9 -10 -9 -9 -10 -10 -10
-12 -12 -13 -12 -12 -12 -12 -12 -12 -12 -12 -12 -11 -11 -11 -11 -10 -11 -11 -11 -10 -10 -10 -10 -9 -9 -9 -10 -9 -10 -9 -10 -10 -9 -10 -10 -10 -9 -10 -9 -10 -10 -10 -10 -10 -10 -10
-12 -12 -12 -12 -12 -12 -11 -11 -11 -12 -12 -11 -11 -11 -11 -11 -11 -11 -11 -11 -11 -11 -10 -10 -10 -9 -9 -10 -10 -10 -10 -9 -10 -10 -10 -10 -10 -9 -10 -10 -10 -10 -10 -10 -11 -11 -11
-12 -12 -12 -12 -11 -11 -11 -11 -11 -12 -11 -11 -11 -11 -11 -11 -11 -11 -11 -11 -11 -11 -11 -10 -10 -9 -9 -10 -11 -11 -10 -10 -10 -10 -10 -10 -10 -10 -10 -10 -10 -10 -10 -11 -11 -12 -11
-12 -12 -12 -11 -11 -11 -11 -11 -12 -12 -12 -12 -11 -11 -11 -11 -12 -12 -12 -12 -12 -11 -11 -11 -11 -10 -10 -10 -11 -11 -11 -11 -10 -10 -10 -10 -10 -10 -10 -10 -10 -11 -11 -11 -11 -12 -12
-12 -12 -12 -12 -12 -11 -11 -12 -12 -12 -12 -12 -12 -12 -11 -12 -12 -12 -12 -12 -12 -11 -11 -11 -11 -10 -11 -11 -10 -10 -11 -11 -11 -10 -10 -10 -10 -10 -11 -11 -11 -11 -11 -11 -11 -11 -11
-13 -12 -12 -12 -12 -12 -12 -12 -13 -12 -12 -12 -12 -12 -12 -12 -12 -12 -12 -12 -12 -12 -10 -10 -11 -10 -10 -11 -9 -10 -11 -10 -10 -10 -11 -10 -10 -10 -11 -11 -12 -12 -12 -11 -11 -12 -13
-13 -13 -13 -12 -12 -12 -13 -13 -13 -13 -13 -13 -12 -12 -12 -12 -12 -12 -12 -12 -13 -13 -11 -9 -11 -10 -11 -11 -10 -10 -12 -11 -11 -10 -11 -11 -10 -11 -11 -11 -12 -11 -12 -12 -12 -12 -12
-13 -13 -13 -13 -13 -13 -13 -13 -13 -13 -13 -13 -13 -13 -13 -13 -13 -13 -13 -13 -14 -14 -14 -9 -11 -10 -11 -11 -10 -11 -12 -12 -11 -11 -12 -10 -10 -11 -12 -11 -13 -11 -13 -13 -13 -13 -12
-14 -14 -14 -13 -14 -13 -13 -14 -13 -14 -14 -14 -14 -14 -14 -14 -14 -14 -14 -15 -14 -14 -15 -12 -11 -11 -12 -12 -11 -12 -12 -12 -12 -13 -13 -10 -12 -12 -11 -12 -14 -10 -13 -14 -14 -14 -13
-14 -14 -14 -14 -14 -14 -14 -14 -14 -14 -14 -14 -14 -15 -14 -14 -14 -15 -15 -15 -15 -16 -15 -14 -13 -13 -13 -12 -13 -12 -12 -13 -13 -13 -13 -12 -13 -12 -12 -12 -13 -13 -13 -14 -14 -14 -13
-15 -15 -15 -15 -15 -15 -15 -15 -14 -15 -15 -15 -15 -15 -15 -14 -15 -16 -16 -16 -16 -16 -15 -15 -16 -14 -14 -14 -13 -14 -13 -14 -14 -13 -13 -13 -12 -12 -14 -13 -14 -14 -14 -14 -14 -14 -12
-16 -16 -16 -16 -16 -16 -16 -16 -16 -16 -16 -17 -16 -16 -16 -15 -16 -16 -16 -16 -16 -15 -16 -16 -16 -16 -15 -14 -14 -15 -15 -14 -15 -15 -15 -14 -12 -13 -13 -14 -14 -14 -15 -15 -15 -15 -14
-16 -16 -16 -17 -17 -17 -17 -17 -18 -18 -18 -18 -18 -18 -17 -16 -17 -18 -17 -18 -16 -16 -16 -16 -17 -16 -16 -15 -15 -15 -15 -15 -15 -16 -16 -15 -13 -14 -15 -14 -14 -13 -15 -15 -16 -15 -15
-18 -19 -18 -19 -19 -18 -18 -17 -18 -19 -19 -19 -18 -19 -18 -19 -19 -19 -18 -18 -17 -16 -17 -18 -17 -17 -16 -16 -17 -16 -16 -16 -15 -16 -16 -16 -14 -16 -16 -15 -15 -15 -15 -15 -15 -15 -15
-21 -21 -21 -21 -21 -20 -20 -20 -19 -19 -20 -19 -18 -19 -19 -19 -19 -19 -19 -18 -18 -18 -19 -18 -18 -18 -17 -17 -18 -17 -17 -17 -17 -17 -17 -17 -17 -16 -17 -17 -17 -16 -16 -16 -16 -16 -16
-24 -23 -22 -23 -24 -24 -23 -22 -21 -20 -21 -20 -20 -19 -20 -19 -19 -20 -19 -19 -19 -18 -18 -18 -19 -19 -19 -18 -18 -18 -18 -18 -18 -18 -18 -17 -18 -17 -18 -18 -17 -16 -16 -16 -15 -16 -16
-26 -26 -25 -25 -26 -26 -25 -24 -24 -23 -22 -23 -23 -21 -21 -20 -20 -20 -22 -21 -21 -21 -20 -20 -20 -20 -20 -19 -20 -19 -19 -18 -19 -19 -18 -18 -18 -18 -18 -17 -18 -17 -16 -16 -16 -17 -17
-28 -27 -27 -27 -27 -27 -26 -27 -26 -26 -25 -25 -25 -25 -24 -23 -21 -21 -22 -22 -22 -22 -21 -21 -21 -21 -21 -20 -20 -20 -20 -20 -20 -20 -19 -19 -19 -19 -19 -18 -18 -18 -18 -18 -18 -18 -18
-28 -28 -28 -28 -28 -28 -28 -28 -28 -28 -28 -28 -28 -27 -26 -25 -25 -24 -24 -24 -23 -22 -22 -22 -22 -21 -22 -22 -21 -21 -21 -21 -21 -21 -20 -20 -20 -20 -20 -19 -19 -19 -19 -20 -19 -19 -20
-28 -28 -28 -29 -29 -29 -29 -29 -29 -29 -29 -29 -29 -29 -28 -27 -26 -26 -26 -25 -24 -23 -23 -23 -23 -22 -22 -22 -23 -23 -22 -22 -22 -22 -21 -20 -20 -19 -19 -20 -20 -21 -20 -20 -20 -20 -21
-29 -28 -28 -28 -29 -29 -29 -30 -30 -29 -29 -29 -29 -29 -29 -28 -28 -27 -27 -26 -26 -25 -25 -25 -24 -24 -24 -23 -23 -23 -23 -23 -23 -23 -22 -22 -21 -21 -20 -20 -21 -21 -20 -20 -20 -21 -22
-29 -29 -28 -28 -28 -29 -29 -30 -30 -30 -30 -30 -30 -29 -29 -29 -29 -28 -27 -27 -26 -26 -25 -25 -25 -25 -25 -24 -24 -24 -24 -24 -24 -24 -24 -24 -23 -23 -22 -22 -22 -21 -21 -22 -22 -22 -22
-30 -29 -29 -28 -28 -29 -29 -30 -30 -30 -30 -30 -30 -30 -29 -29 -29 -29 -28 -28 -27 -27 -26 -26 -26 -26 -25 -25 -24 -24 -24 -24 -24 -24 -24 -24 -25 -24 -24 -23 -24 -23 -22 -24 -25 -24 -24
-30 -30 -29 -29 -29 -29 -29 -30 -30 -30 -30 -30 -30 -30 -30 -30 -29 -29 -29 -28 -28 -28 -27 -27 -26 -27 -27 -26 -25 -24 -25 -25 -25 -25 -25 -25 -25 -25 -24 -24 -24 -23 -24 -25 -25 -24 -24
-30 -30 -30 -29 -29 -29 -29 -30 -31 -31 -31 -31 -31 -30 -30 -30 -30 -30 -29 -29 -29 -28 -28 -28 -27 -27 -27 -26 -26 -26 -26 -26 -26 -25 -25 -25 -25 -25 -24 -25 -24 -24 -24 -25 -25 -25 -24
-31 -31 -30 -29 -29 -29 -29 -30 -30 -31 -31 -31 -31 -31 -30 -30 -30 -30 -30 -30 -29 -29 -29 -28 -28 -28 -28 -27 -27 -27 -27 -26 -26 -26 -25 -25 -25 -25 -25 -25 -24 -24 -25 -25 -25 -25 -24
-31 -30 -30 -30 -29 -29 -30 -30 -30 -31 -31 -31 -31 -31 -31 -30 -30 -30 -30 -30 -30 -29 -29 -29 -29 -29 -29 -29 -28 -28 -28 -27 -27 -26 -26 -26 -26 -25 -25 -25 -25 -25 -25 -25 -25 -25 -25
Height
5801 5802 5802 5803 5803 5802 5802 5802 5802 5802 5802 5801 5800 5798 5797 5796 5795 5796 5796 5795 5793 5791 5790 5789 5788 5789 5791 5791 5789 5785 5790 5789 5790 5790 5788 5788 5789 5787 5789 5788 5788 5788 5788 5784 5784 5787 5786
5788 5789 5790 5790 5790 5790 5790 5789 5789 5789 5789 5789 5788 5786 5786 5786 5785 5786 5786 5785 5786 5784 5783 5784 5781 5782 5784 5786 5784 5782 5782 5782 5782 5782 5783 5780 5782 5781 5784 5782 5781 5782 5781 5781 5779 5780 5779
5776 5777 5777 5778 5777 5777 5777 5776 5776 5776 5777 5776 5776 5776 5775 5776 5776 5776 5776 5776 5776 5776 5775 5777 5771 5774 5778 5780 5775 5774 5776 5777 5776 5776 5778 5775 5774 5774 5776 5775 5775 5773 5774 5775 5776 5775 5774
5760 5761 5761 5761 5762 5763 5763 5763 5762 5763 5764 5765 5765 5765 5765 5766 5767 5766 5766 5767 5766 5766 5767 5766 5764 5764 5769 5770 5768 5769 5767 5768 5770 5770 5770 5769 5767 5766 5765 5766 5769 5767 5766 5768 5773 5769 5771
5746 5746 5746 5747 5748 5749 5750 5750 5750 5751 5752 5753 5753 5753 5754 5755 5756 5756 5757 5756 5758 5756 5757 5756 5758 5754 5760 5764 5764 5759 5759 5760 5760 5763 5763 5761 5759 5758 5758 5760 5760 5762 5760 5759 5762 5761 5762
5731 5732 5732 5732 5734 5736 5736 5736 5737 5738 5739 5741 5742 5742 5741 5744 5744 5744 5745 5745 5746 5745 5746 5746 5749 5747 5752 5751 5754 5751 5751 5752 5752 5752 5756 5756 5750 5748 5751 5752 5751 5754 5750 5751 5753 5755 5752
5716 5717 5717 5717 5719 5719 5720 5722 5723 5723 5725 5727 5728 5730 5730 5731 5732 5731 5733 5732 5734 5733 5735 5737 5736 5738 5739 5741 5741 5737 5747 5742 5742 5743 5746 5745 5742 5743 5746 5744 5741 5741 5742 5742 5743 5745 5745
5701 5701 5701 5704 5703 5704 5704 5706 5708 5708 5709 5712 5714 5715 5716 5718 5717 5717 5718 5718 5717 5719 5720 5723 5726 5725 5731 5731 5722 5733 5731 5732 5733 5733 5734 5734 5732 5737 5735 5736 5734 5732 5732 5733 5736 5739 5735
5685 5686 5686 5687 5687 5690 5689 5691 5692 5692 5693 5694 5697 5698 5700 5700 5701 5702 5703 5703 5703 5700 5702 5709 5712 5717 5719 5711 5720 5723 5717 5718 5720 5720 5720 5723 5724 5723 5723 5725 5723 5724 5722 5724 5725 5726 5728
5666 5669 5669 5671 5672 5672 5674 5675 5677 5678 5679 5680 5681 5681 5683 5683 5686 5686 5686 5686 5687 5685 5683 5694 5691 5700 5704 5702 5707 5708 5706 5708 5705 5708 5709 5708 5712 5715 5713 5713 5712 5715 5714 5714 5715 5714 5714
5646 5647 5650 5651 5651 5652 5655 5656 5658 5661 5663 5663 5664 5664 5664 5666 5669 5670 5672 5672 5672 5671 5667 5679 5676 5680 5686 5690 5692 5696 5696 5692 5696 5696 5692 5703 5702 5703 5701 5703 5700 5705 5702 5701 5701 5702 5702
5626 5627 5629 5629 5629 5632 5634 5638 5641 5643 5644 5645 5647 5649 5650 5650 5653 5655 5656 5657 5658 5659 5652 5661 5665 5663 5666 5670 5673 5678 5681 5682 5683 5683 5682 5692 5692 5689 5691 5691 5690 5691 5689 5689 5689 5688 5688
5601 5602 5604 5607 5608 5609 5613 5612 5615 5619 5624 5627 5630 5630 5633 5636 5641 5641 5642 5641 5641 5639 5647 5651 5650 5650 5654 5656 5655 5657 5664 5667 5669 5669 5671 5677 5680 5680 5677 5677 5679 5680 5679 5678 5675 5671 5676
5576 5578 5580 5585 5586 5587 5589 5592 5596 5597 5600 5600 5606 5612 5613 5619 5623 5626 5624 5622 5618 5633 5638 5637 5634 5638 5641 5645 5647 5646 5647 5653 5656 5655 5655 5657 5668 5665 5669 5668 5673 5669 5665 5663 5658 5662 5668
5551 5552 5554 5557 5561 5566 5569 5572 5575 5578 5582 5585 5587 5587 5590 5599 5602 5601 5603 5595 5603 5622 5620 5618 5620 5625 5630 5634 5633 5631 5633 5637 5641 5642 5639 5641 5654 5651 5654 5657 5657 5662 5652 5657 5650 5652 5650
5523 5524 5527 5531 5534 5539 5544 5549 5554 5557 5561 5565 5568 5571 5578 5580 5584 5584 5576 5576 5591 5599 5595 5597 5600 5606 5612 5624 5619 5617 5618 5624 5628 5627 5628 5625 5634 5638 5640 5643 5644 5645 5646 5642 5637 5635 5637
5494 5498 5501 5505 5507 5512 5517 5521 5527 5532 5539 5543 5547 5547 5568 5564 5564 5560 5554 5561 5580 5584 5576 5582 5584 5587 5593 5602 5601 5601 5605 5610 5614 5616 5619 5618 5622 5630 5628 5630 5631 5632 5632 5634 5632 5628 5629
5467 5471 5476 5480 5485 5487 5489 5496 5502 5507 5510 5513 5519 5527 5544 5547 5544 5540 5540 5547 5559 5565 5560 5563 5566 5570 5577 5582 5586 5587 5590 5593 5599 5602 5602 5604 5606 5612 5617 5621 5622 5616 5615 5617 5616 5613 5616
5442 5447 5451 5455 5460 5465 5469 5474 5478 5484 5487 5489 5491 5502 5512 5520 5522 5527 5527 5529 5534 5543 5547 5547 5547 5553 5558 5562 5569 5574 5578 5576 5583 5587 5587 5591 5589 5595 5603 5609 5605 5598 5603 5601 5601 5600 5602
5424 5427 5431 5436 5440 5446 5449 5454 5458 5462 5466 5469 5471 5476 5488 5492 5498 5507 5513 5515 5517 5521 5529 5531 5532 5538 5540 5544 5551 5556 5561 5562 5565 5569 5573 5574 5574 5578 5584 5588 5588 5588 5588 5586 5588 5588 5586
5412 5414 5417 5420 5424 5429 5432 5436 5441 5446 5447 5451 5454 5456 5467 5471 5479 5486 5493 5497 5502 5505 5508 5515 5513 5522 5527 5528 5531 5536 5543 5545 5547 5551 5556 5557 5559 5560 5564 5572 5568 5570 5571 5574 5573 5575 5568
5400 5402 5406 5409 5412 5415 5419 5424 5428 5432 5437 5437 5442 5445 5450 5454 5461 5467 5474 5480 5482 5488 5493 5497 5498 5506 5510 5512 5517 5517 5525 5525 5529 5533 5541 5543 5550 5547 5551 5556 5553 5550 5555 5562 5562 5560 5556
5386 5390 5394 5398 5402 5405 5410 5413 5417 5421 5426 5429 5430 5434 5434 5439 5445 5452 5458 5463 5465 5470 5478 5480 5483 5486 5489 5496 5504 5509 5506 5511 5515 5520 5524 5527 5534 5537 5538 5540 5534 5531 5553 5548 5548 5544 5540
5372 5377 5382 5387 5392 5396 5401 5404 5409 5412 5417 5419 5420 5423 5425 5432 5434 5440 5443 5447 5453 5457 5463 5466 5468 5472 5479 5483 5488 5493 5496 5498 5501 5507 5511 5513 5517 5521 5523 5526 5521 5533 5539 5534 5526 5527 5531
5359 5365 5371 5378 5383 5388 5392 5397 5401 5405 5410 5413 5412 5416 5418 5422 5425 5431 5433 5436 5442 5446 5452 5456 5458 5461 5463 5469 5477 5482 5484 5488 5493 5493 5499 5504 5506 5508 5509 5513 5513 5520 5526 5515 5511 5516 5514
5346 5353 5361 5368 5374 5380 5384 5389 5394 5399 5403 5407 5408 5410 5413 5416 5420 5423 5427 5429 5433 5437 5442 5443 5447 5450 5452 5459 5463 5470 5474 5478 5483 5487 5490 5496 5498 5497 5502 5500 5501 5512 5507 5503 5504 5505 5506
5333 5342 5351 5359 5366 5372 5377 5383 5388 5393 5397 5402 5403 5405 5408 5410 5414 5417 5420 5425 5424 5431 5434 5438 5439 5442 5446 5450 5455 5460 5464 5469 5472 5477 5484 5486 5488 5490 5493 5492 5496 5499 5499 5498 5497 5499 5494
5320 5332 5342 5351 5359 5366 5372 5377 5382 5387 5391 5397 5399 5401 5404 5407 5410 5413 5415 5418 5421 5424 5428 5432 5434 5434 5439 5444 5448 5452 5455 5459 5465 5472 5475 5477 5478 5483 5486 5485 5486 5488 5489 5490 5490 5488 5484
5311 5324 5335 5344 5353 5360 5366 5372 5377 5382 5387 5392 5396 5398 5400 5403 5408 5409 5412 5413 5416 5420 5423 5425 5427 5428 5432 5436 5439 5442 5447 5453 5457 5462 5464 5468 5471 5476 5478 5478 5477 5479 5478 5481 5482 5482 5481
Wind_Speed
56 59 58 58 59 55 57 60 58 61 61 65 67 62 54 52 47 43 42 42 39 40 37 35 31 32 32 26 29 36 26 20 23 23 22 25 24 26 23 24 28 29 27 28 19 19 25
62 64 63 64 62 66 66 63 66 69 69 70 62 52 50 49 42 40 40 39 43 41 40 41 35 33 35 26 30 31 30 26 27 27 25 24 24 27 22 27 25 29 31 28 23 20 24
69 69 68 68 69 70 75 80 77 77 70 62 52 50 47 45 42 41 42 39 40 42 43 45 39 37 33 29 34 31 32 27 30 29 25 26 25 27 26 28 30 30 31 29 28 23 25
66 68 69 68 66 67 65 62 57 60 57 52 52 49 48 47 46 44 43 42 40 39 42 42 42 44 32 33 38 34 33 33 33 33 29 26 29 26 26 32 30 36 31 30 22 28 22
58 60 63 64 60 61 61 57 55 57 57 57 53 47 47 48 47 45 47 44 43 40 41 41 38 47 38 35 36 37 38 35 32 34 34 29 31 32 32 30 34 34 34 33 29 25 25
64 63 62 63 64 63 61 60 59 59 59 57 53 50 47 50 50 49 50 48 48 47 46 46 42 47 42 40 37 39 39 35 38 36 38 35 38 38 32 30 31 34 38 38 38 28 27
72 71 70 69 68 66 68 62 61 61 58 56 52 56 54 54 55 54 55 56 55 54 53 51 51 50 45 45 45 48 35 38 39 44 38 42 46 39 30 30 33 38 39 40 41 37 34
77 72 72 71 66 71 67 61 61 63 61 62 61 60 62 62 60 59 60 60 62 61 60 55 52 52 48 44 57 46 43 42 40 42 42 43 45 38 37 32 33 39 42 42 42 37 38
75 72 73 75 66 68 65 65 62 66 65 67 68 69 69 69 66 64 66 65 63 63 67 60 56 48 46 54 47 46 46 45 44 45 46 46 46 41 40 40 40 39 42 44 45 44 44
80 77 72 78 81 79 79 76 78 75 75 77 77 74 70 73 71 68 68 67 66 68 65 65 61 56 52 51 48 45 47 46 50 46 40 47 47 43 41 44 40 41 41 43 47 51 55
81 80 79 80 78 81 79 78 80 78 70 72 77 77 76 73 72 68 68 63 60 61 59 59 61 61 49 47 49 46 44 45 43 39 43 43 41 39 41 41 41 41 42 45 46 49 55
92 88 84 85 89 80 78 75 76 72 69 68 69 69 71 73 67 61 63 58 55 46 54 58 57 56 54 50 51 51 45 41 42 45 45 40 35 42 42 39 37 41 43 48 50 54 58
86 85 87 92 93 89 88 92 93 87 78 77 76 78 70 76 60 54 56 57 52 50 53 52 53 56 54 55 57 52 47 44 45 45 45 42 42 41 41 43 41 41 44 47 52 57 55
93 92 91 90 90 91 88 87 89 85 84 80 76 77 74 69 65 58 59 62 66 59 48 54 57 56 57 55 53 49 48 47 48 48 49 50 45 45 43 43 41 42 45 51 53 52 51
100 100 98 95 94 93 91 85 84 81 79 72 65 63 66 75 72 66 70 69 78 64 65 67 67 63 59 57 54 57 56 53 50 48 51 53 48 48 46 46 46 44 50 47 47 49 52
98 95 97 94 95 94 94 95 89 81 78 77 74 71 62 55 56 60 65 65 65 68 68 62 64 64 65 59 58 55 56 57 57 55 47 43 53 45 46 47 46 47 41 44 50 48 50
99 95 95 92 90 90 90 92 92 86 83 81 78 74 62 62 62 64 69 69 66 57 61 60 61 60 62 60 56 56 57 57 56 53 47 48 45 50 47 46 47 49 54 55 57 51 50
91 94 97 92 81 80 88 88 87 90 86 88 86 86 69 69 68 67 72 71 70 60 68 67 65 63 61 58 59 56 57 58 56 55 49 47 43 47 48 44 49 53 56 52 50 49 55
73 81 84 83 78 81 84 92 87 86 92 89 87 87 81 81 78 77 67 71 68 63 63 67 67 65 63 63 57 55 55 59 57 56 57 57 61 56 54 52 55 63 62 61 61 61 59
57 63 61 63 58 60 63 60 63 65 71 71 68 70 73 74 82 82 76 66 63 64 64 63 65 63 65 64 62 60 57 62 59 59 60 62 59 55 51 49 54 57 62 65 66 62 62
41 45 48 49 48 50 49 48 44 47 45 47 48 53 57 60 60 60 62 65 66 70 70 68 69 68 66 64 64 64 61 60 61 62 59 54 54 54 57 60 64 64 59 58 61 60 62
37 38 36 36 36 34 33 33 34 38 43 47 47 47 46 47 52 57 58 58 65 69 69 70 69 67 63 61 41 45 55 58 57 54 52 55 55 58 59 50 50 50 48 52 56 60 61
41 34 33 33 32 30 26 26 27 32 38 40 43 41 45 44 43 47 50 55 30 51 56 50 53 56 55 59 58 51 49 57 57 54 59 65 62 63 66 70 73 70 63 65 64 66 63
42 39 33 30 30 29 29 27 26 26 25 27 29 34 36 36 42 43 49 52 49 40 41 33 40 53 46 46 43 52 41 37 47 45 44 39 45 53 59 60 62 62 57 54 55 53 53
41 40 37 31 28 28 27 27 26 25 24 20 24 25 28 32 34 37 40 46 48 45 44 36 24 20 40 53 57 45 43 48 34 31 35 36 33 31 36 37 40 38 34 36 38 39 41
39 38 38 34 30 28 26 25 26 25 23 20 20 20 21 23 23 29 30 32 36 33 37 48 46 33 29 31 42 54 46 37 34 30 26 27 30 32 32 37 37 23 29 35 34 34 36
46 43 37 36 32 29 27 28 29 28 27 24 23 20 21 21 20 21 28 27 29 28 24 27 30 31 38 38 40 37 41 40 33 37 35 30 31 28 31 38 31 20 22 25 32 32 35
43 43 37 35 33 30 28 27 29 30 27 22 20 17 16 23 21 23 28 29 32 33 26 32 32 28 32 40 39 39 36 38 35 32 31 30 28 29 30 21 33 30 28 30 30 30 19
41 43 31 33 32 30 28 28 27 27 23 20 18 11 9 19 17 14 23 28 30 32 35 38 38 38 35 30 32 38 35 33 25 34 41 41 35 36 42 34 29 26 23 26 26 11 18
Wind_Direction
266 268 267 267 266 265 271 271 272 278 281 285 284 284 281 285 284 279 282 285 285 287 286 285 282 283 291 296 281 294 293 284 284 286 290 291 294 290 282 277 277 282 276 269 256 252 276
267 267 268 266 269 267 270 269 272 277 281 285 283 279 282 283 280 276 279 280 281 281 282 286 282 282 287 291 291 289 288 290 286 289 291 287 289 291 286 275 281 272 274 276 268 259 260
270 269 268 267 268 270 270 273 271 275 279 279 278 281 280 278 277 277 281 282 280 280 279 283 282 280 285 290 281 280 281 283 282 283 288 283 284 290 288 277 273 272 274 273 274 270 270
271 272 271 273 272 273 278 276 275 274 275 274 278 277 276 276 273 274 276 278 278 279 280 281 281 277 280 279 279 276 278 279 282 283 281 282 281 282 281 274 272 272 270 273 270 268 272
271 270 269 268 270 275 274 274 274 275 275 275 276 275 275 274 273 272 273 273 274 274 279 279 283 281 281 275 276 276 274 273 277 280 277 283 282 282 276 281 279 278 274 267 259 262 266
269 271 273 270 271 273 270 271 273 274 273 273 272 269 274 274 275 272 271 271 273 276 275 279 278 281 284 283 278 274 271 274 274 272 277 283 279 275 276 279 283 271 268 269 267 255 258
271 274 275 272 270 270 271 268 271 271 271 269 272 270 273 276 276 273 273 275 275 274 277 276 279 278 278 286 281 275 276 274 272 275 280 280 274 281 284 276 268 265 266 267 267 272 265
271 272 271 270 272 272 268 264 267 270 265 270 271 271 271 274 276 273 273 277 277 280 277 275 273 278 278 272 273 278 274 272 273 275 274 274 277 280 277 276 272 268 266 267 268 267 262
270 264 264 267 272 265 263 262 268 265 264 270 271 272 274 274 275 274 272 273 275 277 277 273 272 274 269 268 272 270 270 276 272 269 268 272 275 271 274 279 273 274 272 272 273 268 259
269 266 262 265 263 260 264 266 268 267 270 272 272 271 270 271 273 273 273 274 274 276 275 279 278 275 272 269 268 268 268 268 270 274 269 265 268 275 275 275 270 272 264 265 266 265 269
266 266 264 264 262 260 261 269 269 266 265 268 270 265 268 265 262 268 270 270 274 273 272 274 274 278 269 264 263 263 262 266 266 258 260 276 271 270 268 268 262 273 265 263 262 262 264
266 261 259 255 265 261 256 259 267 262 261 257 261 268 265 260 262 268 267 265 261 266 264 268 267 272 271 268 268 267 266 264 261 256 261 261 266 264 269 264 260 262 263 266 268 266 267
267 266 267 270 272 274 271 272 273 274 271 272 271 274 270 267 264 257 260 260 263 259 265 266 267 264 265 267 270 271 267 267 265 261 260 261 258 261 262 259 262 263 263 261 259 260 272
264 264 264 265 269 272 272 271 273 276 276 280 274 274 269 265 263 257 262 264 259 258 265 269 274 272 270 269 267 266 274 270 268 271 271 265 257 263 268 269 269 266 265 261 261 264 271
263 263 263 264 264 265 266 267 269 269 268 267 260 264 263 270 276 276 274 261 270 267 272 267 272 272 270 271 269 274 277 273 269 266 267 269 263 268 267 268 267 270 264 268 266 268 268
264 265 267 267 266 265 264 265 265 263 261 260 256 256 253 256 257 259 254 247 261 273 273 265 265 267 261 263 263 264 267 268 270 274 276 264 278 269 268 268 267 267 267 247 260 260 275
261 260 260 258 259 259 262 264 263 260 260 254 252 247 249 247 248 251 250 255 262 258 256 255 258 260 258 256 255 258 261 265 264 264 265 265 266 264 269 268 265 266 258 257 257 255 262
259 261 261 262 266 267 266 262 261 261 261 261 253 252 245 244 249 251 253 257 257 251 255 259 260 259 259 262 262 264 267 261 257 259 261 262 251 259 263 264 259 258 247 249 239 240 254
262 263 263 265 262 262 267 267 268 267 267 267 267 260 258 253 248 256 263 267 266 264 261 262 265 264 262 260 262 261 252 253 266 266 266 264 265 267 266 259 250 253 251 248 249 255 263
264 262 261 262 259 259 260 261 264 264 264 265 266 266 265 264 262 263 262 254 252 258 262 259 260 259 262 267 268 264 260 257 267 269 267 269 270 264 262 254 250 253 259 259 260 264 269
264 263 262 260 261 260 259 258 253 252 255 250 251 255 258 254 254 256 257 253 247 248 248 250 253 256 259 261 262 260 261 257 259 264 262 266 258 264 251 247 251 257 258 259 264 266 268
259 257 256 256 257 259 261 257 251 242 233 248 249 249 249 249 248 244 245 248 246 244 245 246 248 250 246 245 242 254 251 253 254 255 257 245 249 239 237 242 243 244 248 258 265 270 268
251 251 251 250 251 254 254 252 248 246 248 253 254 252 251 245 244 239 238 239 227 239 235 244 241 243 243 242 241 239 246 255 257 254 250 246 248 249 250 256 264 267 265 267 272 272 273
245 242 243 242 244 247 248 248 247 247 248 250 252 251 252 250 245 237 229 226 232 228 232 235 244 238 237 233 235 238 239 249 249 249 252 256 259 257 257 259 266 269 271 274 270 268 271
238 235 234 234 234 238 240 241 238 240 242 247 253 249 247 246 245 242 238 230 231 235 228 226 211 229 242 241 240 235 229 231 232 226 232 244 251 259 261 262 269 273 278 268 267 267 266
223 232 228 226 225 227 229 231 231 235 238 250 264 248 236 235 240 240 238 240 234 239 236 235 235 228 244 238 241 233 237 230 233 245 239 247 262 252 265 267 267 276 260 265 271 277 277
220 226 223 222 219 221 224 225 228 236 242 248 256 253 237 203 221 229 230 229 237 224 222 225 229 239 250 246 243 242 244 249 251 253 257 250 241 252 258 263 268 248 255 261 278 281 280
217 214 212 218 216 217 220 222 224 227 232 233 238 245 237 216 215 228 235 240 242 232 222 217 222 234 236 246 248 247 250 240 238 238 232 230 242 254 250 252 258 257 262 276 282 285 277
209 203 203 215 213 212 216 220 223 221 221 222 217 235 242 209 215 232 237 243 252 255 253 251 254 253 248 251 257 256 247 240 239 235 234 237 247 251 248 243 259 268 275 271 272 310 295